GLO1916 SBSV-SBMO

Flight info

Callsign GLO1916
Flight time 0h 46m
Altitude 23000
Route ARURU Z35 MCE
Aircraft B738/M-SDE2E3FGHIRWXY/LB1

Departure

Time 2026-04-26 17:08
Airport Deputado Luiz Eduardo Magalhães International Airport (SBSV)

Arrival

Time 2026-04-26 17:54
Airport Zumbi dos Palmares International Airport (SBMO)
Time Latitude Longitude Altitude Speed Heading
2026-04-26 16:45 -12.91493 -38.33301 28 ft 0 kts 349°
2026-04-26 16:58 -12.91499 -38.33299 24 ft 2 kts 349°
2026-04-26 16:59 -12.91515 -38.33296 28 ft 3 kts 354°
2026-04-26 16:59 -12.91543 -38.33310 28 ft 3 kts 75°
2026-04-26 17:00 -12.91547 -38.33327 24 ft 0 kts 78°
2026-04-26 17:03 -12.91546 -38.33326 24 ft 1 kts 78°
2026-04-26 17:04 -12.91535 -38.33270 24 ft 14 kts 78°
2026-04-26 17:04 -12.91510 -38.33173 27 ft 13 kts 51°
2026-04-26 17:04 -12.91426 -38.33143 25 ft 13 kts 355°
2026-04-26 17:04 -12.91339 -38.33158 29 ft 13 kts 348°
2026-04-26 17:05 -12.91257 -38.33176 30 ft 11 kts 348°
2026-04-26 17:05 -12.91213 -38.33208 26 ft 8 kts 279°
2026-04-26 17:05 -12.91219 -38.33269 28 ft 9 kts 262°
2026-04-26 17:05 -12.91214 -38.33338 28 ft 11 kts 290°
2026-04-26 17:06 -12.91185 -38.33399 25 ft 8 kts 298°
2026-04-26 17:06 -12.91144 -38.33439 21 ft 9 kts 332°
2026-04-26 17:06 -12.91094 -38.33432 21 ft 8 kts 70°
2026-04-26 17:06 -12.91091 -38.33423 21 ft 0 kts 77°
2026-04-26 17:07 -12.91090 -38.33419 21 ft 2 kts 77°
2026-04-26 17:07 -12.91069 -38.33314 24 ft 46 kts 79°
2026-04-26 17:07 -12.90954 -38.32735 33 ft 117 kts 78°
2026-04-26 17:08 -12.90753 -38.31718 60 ft 171 kts 77°
2026-04-26 17:08 -12.90448 -38.30495 748 ft 173 kts 78°
2026-04-26 17:08 -12.90172 -38.29297 1603 ft 179 kts 79°
2026-04-26 17:08 -12.89852 -38.27978 2168 ft 201 kts 71°
2026-04-26 17:09 -12.88953 -38.26792 2484 ft 231 kts 34°
2026-04-26 17:09 -12.87934 -38.26382 2666 ft 247 kts
2026-04-26 17:09 -12.85515 -38.26644 3217 ft 275 kts 351°
2026-04-26 17:09 -12.83645 -38.26942 4069 ft 277 kts 352°
2026-04-26 17:10 -12.81749 -38.27299 5033 ft 277 kts 351°
2026-04-26 17:10 -12.79832 -38.27657 5662 ft 283 kts 352°
2026-04-26 17:10 -12.77884 -38.27943 5964 ft 285 kts 354°
2026-04-26 17:10 -12.75919 -38.28178 5990 ft 284 kts 355°
2026-04-26 17:11 -12.73946 -38.28392 6002 ft 286 kts 355°
2026-04-26 17:11 -12.71966 -38.28497 5991 ft 285 kts
2026-04-26 17:11 -12.70140 -38.27783 6111 ft 284 kts 35°
2026-04-26 17:11 -12.68534 -38.26597 6894 ft 284 kts 39°
2026-04-26 17:12 -12.65364 -38.24115 8526 ft 291 kts 39°
2026-04-26 17:12 -12.63734 -38.22835 9292 ft 297 kts 39°
2026-04-26 17:13 -12.60378 -38.20215 10495 ft 319 kts 38°
2026-04-26 17:13 -12.58541 -38.18785 10715 ft 342 kts 38°
2026-04-26 17:13 -12.54667 -38.15783 11984 ft 353 kts 37°
2026-04-26 17:14 -12.52729 -38.14286 12746 ft 354 kts 37°
2026-04-26 17:14 -12.48784 -38.11240 14303 ft 355 kts 36°
2026-04-26 17:14 -12.46804 -38.09712 14927 ft 359 kts 36°
2026-04-26 17:15 -12.42816 -38.06634 16347 ft 361 kts 37°
2026-04-26 17:15 -12.40795 -38.05075 16970 ft 365 kts 38°
2026-04-26 17:15 -12.38758 -38.03502 17573 ft 369 kts 38°
2026-04-26 17:16 -12.36698 -38.01913 18191 ft 372 kts 38°
2026-04-26 17:16 -12.34634 -38.00321 18888 ft 370 kts 38°
2026-04-26 17:16 -12.32587 -37.98744 19595 ft 367 kts 38°
2026-04-26 17:16 -12.30570 -37.97190 20247 ft 367 kts 38°
2026-04-26 17:17 -12.28530 -37.95617 20879 ft 368 kts 38°
2026-04-26 17:17 -12.26493 -37.94048 21576 ft 366 kts 38°
2026-04-26 17:17 -12.24454 -37.92477 22317 ft 364 kts 38°
2026-04-26 17:17 -12.22425 -37.90914 22800 ft 366 kts 38°
2026-04-26 17:18 -12.20402 -37.89356 22966 ft 364 kts 38°
2026-04-26 17:18 -12.18374 -37.87794 22959 ft 365 kts 38°
2026-04-26 17:18 -12.16345 -37.86232 22970 ft 365 kts 38°
2026-04-26 17:18 -12.14316 -37.84670 22973 ft 365 kts 38°
2026-04-26 17:19 -12.10256 -37.81547 22967 ft 365 kts 38°
2026-04-26 17:19 -12.08192 -37.79957 22984 ft 379 kts 38°
2026-04-26 17:19 -12.06045 -37.78305 22977 ft 393 kts 38°
2026-04-26 17:20 -12.03860 -37.76624 22978 ft 402 kts 38°
2026-04-26 17:20 -12.02373 -37.75481 22974 ft 402 kts 38°
2026-04-26 17:20 -11.99399 -37.73197 22955 ft 397 kts 38°
2026-04-26 17:20 -11.97197 -37.71505 22956 ft 395 kts 38°
2026-04-26 17:21 -11.95007 -37.69823 22952 ft 393 kts 38°
2026-04-26 17:21 -11.92791 -37.68194 22958 ft 392 kts 35°
2026-04-26 17:21 -11.90499 -37.66678 22968 ft 393 kts 33°
2026-04-26 17:21 -11.88167 -37.65202 22968 ft 394 kts 33°
2026-04-26 17:22 -11.85825 -37.63736 22961 ft 396 kts 33°
2026-04-26 17:22 -11.83475 -37.62260 22966 ft 397 kts 33°
2026-04-26 17:22 -11.81163 -37.60798 22959 ft 398 kts 33°
2026-04-26 17:22 -11.78811 -37.59301 22958 ft 399 kts 33°
2026-04-26 17:23 -11.76446 -37.57790 22957 ft 399 kts 33°
2026-04-26 17:23 -11.74088 -37.56280 22961 ft 399 kts 33°
2026-04-26 17:23 -11.71737 -37.54772 22962 ft 399 kts 33°
2026-04-26 17:23 -11.69380 -37.53259 22953 ft 399 kts 33°
2026-04-26 17:24 -11.67032 -37.51751 22962 ft 399 kts 33°
2026-04-26 17:24 -11.64677 -37.50239 22970 ft 404 kts 34°
2026-04-26 17:24 -11.62294 -37.48709 22972 ft 415 kts 34°
2026-04-26 17:24 -11.59823 -37.47123 22970 ft 425 kts 33°
2026-04-26 17:25 -11.57297 -37.45502 22968 ft 433 kts 33°
2026-04-26 17:25 -11.54727 -37.43854 22967 ft 440 kts 33°
2026-04-26 17:25 -11.52120 -37.42183 22955 ft 443 kts 33°
2026-04-26 17:25 -11.49513 -37.40514 22952 ft 441 kts 33°
2026-04-26 17:26 -11.46920 -37.38853 22948 ft 439 kts 33°
2026-04-26 17:26 -11.44333 -37.37197 22950 ft 439 kts 33°
2026-04-26 17:26 -11.41744 -37.35539 22955 ft 439 kts 33°
2026-04-26 17:26 -11.39159 -37.33884 22958 ft 439 kts 33°
2026-04-26 17:27 -11.36571 -37.32227 22957 ft 439 kts 33°
2026-04-26 17:27 -11.33965 -37.30559 22956 ft 440 kts 33°
2026-04-26 17:27 -11.31400 -37.28917 22959 ft 440 kts 33°
2026-04-26 17:27 -11.28801 -37.27255 22960 ft 441 kts 33°
2026-04-26 17:28 -11.26191 -37.25585 22954 ft 441 kts 33°
2026-04-26 17:28 -11.23588 -37.23921 22955 ft 442 kts 33°
2026-04-26 17:28 -11.20987 -37.22257 22950 ft 441 kts 33°
2026-04-26 17:28 -11.18387 -37.20596 22949 ft 441 kts 33°
2026-04-26 17:29 -11.15785 -37.18933 22951 ft 440 kts 33°
2026-04-26 17:29 -11.14069 -37.17836 22946 ft 440 kts 33°
2026-04-26 17:29 -11.10626 -37.15636 22942 ft 440 kts 33°
2026-04-26 17:29 -11.08026 -37.13975 22939 ft 440 kts 33°
2026-04-26 17:30 -11.05432 -37.12318 22939 ft 439 kts 33°
2026-04-26 17:30 -11.02868 -37.10681 22943 ft 439 kts 33°
2026-04-26 17:30 -11.00277 -37.09027 22937 ft 439 kts 33°
2026-04-26 17:30 -10.97708 -37.07326 22938 ft 439 kts 37°
2026-04-26 17:31 -10.95343 -37.05372 22949 ft 438 kts 42°
2026-04-26 17:31 -10.93048 -37.03328 22939 ft 439 kts 43°
2026-04-26 17:31 -10.90766 -37.01262 22939 ft 439 kts 43°
2026-04-26 17:31 -10.88485 -36.99199 22941 ft 439 kts 43°
2026-04-26 17:32 -10.86192 -36.97139 22941 ft 439 kts 42°
2026-04-26 17:32 -10.83900 -36.95095 22942 ft 439 kts 42°
2026-04-26 17:32 -10.81596 -36.93053 22945 ft 439 kts 42°
2026-04-26 17:32 -10.79287 -36.91013 22949 ft 439 kts 42°
2026-04-26 17:33 -10.76980 -36.88979 22949 ft 439 kts 42°
2026-04-26 17:33 -10.74695 -36.86966 22950 ft 439 kts 42°
2026-04-26 17:33 -10.72384 -36.84931 22957 ft 439 kts 42°
2026-04-26 17:34 -10.67754 -36.80854 22952 ft 439 kts 42°
2026-04-26 17:34 -10.65442 -36.78818 22953 ft 440 kts 42°
2026-04-26 17:34 -10.63134 -36.76785 22951 ft 440 kts 42°
2026-04-26 17:34 -10.60822 -36.74750 22946 ft 440 kts 42°
2026-04-26 17:35 -10.58510 -36.72715 22953 ft 439 kts 42°
2026-04-26 17:35 -10.56219 -36.70700 22934 ft 428 kts 42°
2026-04-26 17:35 -10.54019 -36.68766 22929 ft 409 kts 42°
2026-04-26 17:35 -10.51910 -36.66913 22850 ft 393 kts 42°
2026-04-26 17:36 -10.49858 -36.65108 22492 ft 387 kts 42°
2026-04-26 17:36 -10.47831 -36.63325 22035 ft 383 kts 42°
2026-04-26 17:36 -10.45850 -36.61582 21573 ft 380 kts 41°
2026-04-26 17:36 -10.43856 -36.59829 21104 ft 377 kts 41°
2026-04-26 17:37 -10.41882 -36.58093 20632 ft 374 kts 41°
2026-04-26 17:37 -10.39917 -36.56366 20164 ft 372 kts 41°
2026-04-26 17:37 -10.37967 -36.54653 19694 ft 370 kts 41°
2026-04-26 17:38 -10.34739 -36.51816 18908 ft 367 kts 41°
2026-04-26 17:38 -10.32808 -36.50120 18443 ft 366 kts 41°
2026-04-26 17:38 -10.30261 -36.47883 17764 ft 364 kts 41°
2026-04-26 17:38 -10.28969 -36.46749 17440 ft 362 kts 41°
2026-04-26 17:39 -10.27070 -36.45082 16965 ft 359 kts 41°
2026-04-26 17:39 -10.25181 -36.43437 16512 ft 356 kts 39°
2026-04-26 17:39 -10.23141 -36.42032 16058 ft 354 kts 30°
2026-04-26 17:39 -10.21029 -36.40825 15623 ft 352 kts 29°
2026-04-26 17:40 -10.18891 -36.39618 15186 ft 350 kts 29°
2026-04-26 17:40 -10.17457 -36.38809 14874 ft 349 kts 29°
2026-04-26 17:40 -10.14645 -36.37217 14264 ft 349 kts 29°
2026-04-26 17:40 -10.12529 -36.36014 13829 ft 348 kts 29°
2026-04-26 17:41 -10.10423 -36.34812 13325 ft 347 kts 29°
2026-04-26 17:41 -10.08321 -36.33611 12868 ft 345 kts 29°
2026-04-26 17:41 -10.06232 -36.32416 12418 ft 343 kts 30°
2026-04-26 17:41 -10.04157 -36.31228 11970 ft 342 kts 30°
2026-04-26 17:42 -10.02119 -36.30061 11539 ft 340 kts 30°
2026-04-26 17:42 -10.00059 -36.28881 11109 ft 339 kts 30°
2026-04-26 17:42 -9.98010 -36.27708 10664 ft 338 kts 30°
2026-04-26 17:42 -9.95979 -36.26546 10474 ft 329 kts 30°
2026-04-26 17:43 -9.94013 -36.25421 10312 ft 320 kts 31°
2026-04-26 17:43 -9.92102 -36.24328 10173 ft 311 kts 31°
2026-04-26 17:43 -9.90247 -36.23267 10041 ft 302 kts 31°
2026-04-26 17:43 -9.88438 -36.22231 9834 ft 297 kts 31°
2026-04-26 17:44 -9.86637 -36.21199 9514 ft 296 kts 31°
2026-04-26 17:44 -9.84873 -36.20190 9198 ft 294 kts 30°
2026-04-26 17:44 -9.83094 -36.19171 8893 ft 292 kts 30°
2026-04-26 17:44 -9.81326 -36.18160 8581 ft 291 kts 30°
2026-04-26 17:45 -9.79564 -36.17152 8272 ft 290 kts 31°
2026-04-26 17:45 -9.77808 -36.16147 7979 ft 289 kts 30°
2026-04-26 17:45 -9.76059 -36.15146 7678 ft 287 kts 30°
2026-04-26 17:45 -9.74314 -36.14149 7376 ft 286 kts 30°
2026-04-26 17:46 -9.72586 -36.13162 7084 ft 285 kts 31°
2026-04-26 17:46 -9.70859 -36.12175 6774 ft 285 kts 31°
2026-04-26 17:46 -9.69154 -36.11201 6494 ft 284 kts 31°
2026-04-26 17:46 -9.67430 -36.10216 6165 ft 285 kts 32°
2026-04-26 17:47 -9.65705 -36.09230 5857 ft 285 kts 31°
2026-04-26 17:47 -9.64540 -36.08564 5648 ft 284 kts 30°
2026-04-26 17:47 -9.62274 -36.07267 5244 ft 281 kts 32°
2026-04-26 17:47 -9.60575 -36.06297 4976 ft 279 kts 31°
2026-04-26 17:48 -9.58890 -36.05335 4705 ft 278 kts 31°
2026-04-26 17:48 -9.57203 -36.04372 4444 ft 276 kts 31°
2026-04-26 17:48 -9.55557 -36.03426 4317 ft 268 kts 32°
2026-04-26 17:48 -9.53980 -36.02482 4211 ft 257 kts 34°
2026-04-26 17:49 -9.52496 -36.01595 4102 ft 237 kts 34°
2026-04-26 17:49 -9.51123 -36.00776 3958 ft 221 kts 34°
2026-04-26 17:49 -9.49859 -36.00020 3831 ft 207 kts 32°
2026-04-26 17:49 -9.48664 -35.99301 3801 ft 197 kts 36°
2026-04-26 17:50 -9.47794 -35.98283 3629 ft 187 kts 77°
2026-04-26 17:50 -9.47731 -35.97037 3500 ft 174 kts 102°
2026-04-26 17:50 -9.47948 -35.95845 3325 ft 171 kts 104°
2026-04-26 17:50 -9.48170 -35.94665 3114 ft 172 kts 104°
2026-04-26 17:51 -9.48394 -35.93479 2922 ft 170 kts 104°
2026-04-26 17:51 -9.48608 -35.92337 2732 ft 159 kts 104°
2026-04-26 17:51 -9.48809 -35.91264 2529 ft 153 kts 104°
2026-04-26 17:51 -9.49009 -35.90210 2359 ft 152 kts 104°
2026-04-26 17:52 -9.49204 -35.89182 2119 ft 145 kts 103°
2026-04-26 17:52 -9.49389 -35.88197 1984 ft 145 kts 103°
2026-04-26 17:52 -9.49582 -35.87174 1778 ft 148 kts 102°
2026-04-26 17:52 -9.49765 -35.86183 1568 ft 137 kts 104°
2026-04-26 17:53 -9.49944 -35.85235 1352 ft 137 kts 103°
2026-04-26 17:53 -9.50125 -35.84270 1223 ft 146 kts 102°
2026-04-26 17:53 -9.50314 -35.83260 1065 ft 143 kts 102°
2026-04-26 17:54 -9.50681 -35.81325 697 ft 137 kts 98°
2026-04-26 17:54 -9.50854 -35.80397 461 ft 132 kts 103°
2026-04-26 17:54 -9.51011 -35.79547 400 ft 101 kts 100°
2026-04-26 17:54 -9.51109 -35.79060 395 ft 42 kts 106°
2026-04-26 17:55 -9.51216 -35.78876 398 ft 20 kts 129°
2026-04-26 17:55 -9.51264 -35.78819 400 ft 9 kts 134°
2026-04-26 17:55 -9.51306 -35.78822 400 ft 5 kts 237°
2026-04-26 17:55 -9.51305 -35.78856 400 ft 7 kts 281°
2026-04-26 17:56 -9.51293 -35.78916 400 ft 10 kts 281°
2026-04-26 17:56 -9.51342 -35.79028 400 ft 9 kts 226°
2026-04-26 17:57 -9.51345 -35.79143 400 ft 7 kts 280°
2026-04-26 17:57 -9.51339 -35.79176 400 ft 5 kts 280°
2026-04-26 17:57 -9.51358 -35.79199 398 ft 5 kts 201°
2026-04-26 17:57 -9.51386 -35.79206 400 ft 3 kts 191°
2026-04-26 17:58 -9.51399 -35.79209 400 ft 0 kts 191°